[[{"header":{"parameterUnit":"m.s-1","parameterCategory":1,"la1":30.2991,"la2":30.254,"lo1":-89.0895,"lo2":-89.0444,"dy":0.0017,"dx":0.0017,"nx":28,"ny":28,"refTime":"2025-06-06T03:00:00:Z","depth":0,"parameterNumber":2,"parameterNumberName":"U-component_of_WINDS"},"data":[0,0,0,0,0,0,0,0,0,0,0,0,0,0,0,0,0,0,0,0,0,0,0,0,0,0,0,0,0,0,0,0,0,0,0,0,0,0,0,0,0,0,0,0,0,0,0,0,0,0,0,0,0,0,0,0,0,0,0.8831,0.8832,0,0.8958,0.8959,0.8961,0.9004,0.9004,0.9003,0.9003,0.9133,0.9137,0.9141,0,0,0,0,0,0,0,0,0,0,0,0,0,0.8627,0.8631,0.8831,0.8833,0.8834,0.8957,0.8959,0.8961,0.9004,0.9004,0.9003,0.9003,0.9132,0.9136,0.9141,0,0,0,0,0,0,0,0,0,0,0,0,0,0.8731,0.8632,0.8831,0.8871,0.8876,0.8957,0.8959,0.8961,0.9004,0.9004,0.9003,0.9002,0.913,0.9136,0.9142,0.9193,0,0,0.916,0.9162,0,0,0,0,0,0,0,0,0.8725,0.8738,0.8863,0.8868,0.8874,0.8964,0.8935,0.9039,0.9005,0.8956,0.9003,0.9002,0.9077,0.9088,0.9113,0.9199,0.9205,0.916,0.9164,0.9166,0.9168,0,0,0,0,0,0,0,0.8718,0.8733,0.8881,0.8865,0.8871,0.8882,0.8896,0.8955,0.9019,0.896,0.8963,0.8978,0.908,0.9107,0.9116,0.9206,0.916,0.9165,0.9169,0.9171,0.934,0.9341,0,0,0,0,0,0,0.8704,0.8727,0.8877,0.8885,0.8796,0.8887,0.8902,0.8936,0.9019,0.903,0.8978,0.8979,0.9098,0.9109,0.9121,0.9186,0.9166,0.9172,0.9175,0.9339,0.934,0.9341,0,0,0,0,0,0,0.8699,0.8717,0.8872,0.8807,0.8828,0.8891,0.8929,0.8939,0.8966,0.9032,0.9044,0.8994,0.9097,0.9113,0.9175,0.9191,0.9174,0.918,0.9338,0.934,0.9341,0.9316,0,0,0,0,0,0,0.8693,0.8715,0.8735,0.8807,0.8831,0.8923,0.893,0.8942,0.8976,0.8979,0.905,0.9062,0.9098,0.9165,0.918,0.9199,0.9184,0.9337,0.9339,0.934,0.9316,0.9317,0.9317,0,0,0,0,0,0.8686,0.8723,0.8736,0.8754,0.8857,0.8924,0.8938,0.8979,0.8977,0.8998,0.904,0.9059,0.9187,0.9171,0.9189,0.9209,0.9336,0.9338,0.934,0.9315,0.9316,0.9317,0,0,0,0,0,0,0.8651,0.8733,0.8748,0.881,0.886,0.8931,0.8958,0.8978,0.903,0.903,0.9079,0.9095,0.9152,0.9187,0.9168,0.9263,0.9263,0.9268,0.9238,0.9239,0.924,0.923,0.9189,0,0,0,0,0,0.8651,0.8698,0.8767,0.8815,0.8839,0.8894,0.8925,0.8952,0.9006,0.9027,0.9074,0.9126,0.9177,0.921,0.9262,0.9321,0.9337,0.9344,0.9345,0.9345,0.9349,0.9383,0.9386,0.9348,0.9348,0.9348,0,0,0.8651,0.8701,0.8728,0.881,0.8851,0.8899,0.8912,0.8962,0.8998,0.9035,0.9096,0.9132,0.9193,0.9253,0.9282,0.9284,0.9363,0.9348,0.9347,0.9352,0.9385,0.9389,0.9392,0.935,0.935,0.9349,0,0,0.8674,0.8718,0.8762,0.8803,0.8866,0.8903,0.8913,0.8982,0.9007,0.9069,0.9098,0.9141,0.923,0.9271,0.9304,0.9343,0.9362,0.9359,0.9362,0.9394,0.9397,0.94,0.9413,0.9418,0.9363,0.9363,0.9363,0,0.8666,0.8739,0.8782,0.8831,0.8866,0.8901,0.8946,0.8985,0.9061,0.9084,0.9085,0.9196,0.9239,0.931,0.9319,0.9345,0.9358,0.935,0.9393,0.9397,0.94,0.9413,0.9418,0.9362,0.9362,0.9362,0.9362,0,0.8725,0.8776,0.8804,0.8876,0.8915,0.8961,0.9011,0.9045,0.9069,0.9105,0.9167,0.922,0.9283,0.9302,0.9326,0.9376,0.9375,0.9384,0.9384,0.9402,0.9415,0.9421,0.936,0.9361,0.9361,0.9361,0,0,0.873,0.8826,0.8836,0.8869,0.8941,0.8981,0.9029,0.909,0.9117,0.9169,0.921,0.9284,0.9292,0.9329,0.9359,0.9387,0.9414,0.9393,0.9395,0.9394,0.9471,0.9463,0.9468,0.9427,0.9428,0.9429,0.9466,0,0.8763,0.885,0.889,0.896,0.9006,0.9041,0.9083,0.9131,0.9167,0.9211,0.9251,0.9301,0.931,0.9332,0.9362,0.9404,0.943,0.9402,0.9466,0.9467,0.9449,0.9476,0.9468,0.95,0.9471,0.9472,0.9473,0,0.8812,0.8863,0.8937,0.9003,0.9024,0.9061,0.912,0.9163,0.9218,0.9242,0.9283,0.9311,0.9363,0.936,0.9432,0.9413,0.9441,0.9466,0.9468,0.9475,0.9471,0.9483,0.9511,0.9515,0.9482,0.9481,0.948,0,0.8807,0.8895,0.895,0.8978,0.9057,0.9082,0.9116,0.9171,0.9205,0.9256,0.9278,0.9335,0.9366,0.941,0.9452,0.9447,0.952,0.9521,0.9541,0.9539,0.9554,0.9552,0.9587,0.9573,0.9573,0.9573,0.9573,0,0.8839,0.8883,0.8949,0.8983,0.9033,0.9079,0.9127,0.9164,0.9212,0.9254,0.9288,0.9326,0.938,0.9425,0.9459,0.9513,0.9527,0.9548,0.9556,0.9544,0.9541,0.9563,0.9562,0.9575,0.9574,0.9574,0.9574,0,0.8842,0.8888,0.8951,0.902,0.9039,0.9072,0.9132,0.9166,0.9203,0.9255,0.927,0.9328,0.9383,0.943,0.9502,0.9525,0.958,0.9591,0.9561,0.9566,0.9582,0.958,0.9631,0.964,0.9621,0.9621,0.9621,0,0.8858,0.8893,0.8966,0.8996,0.9029,0.9078,0.9112,0.9159,0.9194,0.926,0.9286,0.9343,0.9391,0.9478,0.9526,0.9582,0.9593,0.9607,0.9602,0.9589,0.9593,0.959,0.9593,0.9607,0.9607,0.9607,0.9607,0,0.8883,0.8904,0.8953,0.9009,0.905,0.9097,0.9144,0.9167,0.9223,0.926,0.9317,0.9354,0.9428,0.9484,0.9545,0.958,0.9603,0.9609,0.9616,0.9604,0.9585,0.9595,0.9561,0.9607,0.9607,0.9607,0.9607,0.9607,0.8893,0.8925,0.8981,0.9034,0.9075,0.9119,0.9154,0.9195,0.9243,0.9307,0.9332,0.9389,0.9444,0.9528,0.9563,0.9609,0.9612,0.9623,0.9626,0.9627,0.9625,0.9579,0.962,0.962,0.962,0.962,0.962,0,0.8918,0.8956,0.9005,0.907,0.9112,0.913,0.9184,0.9217,0.9267,0.9317,0.9363,0.9428,0.9483,0.9536,0.9593,0.9619,0.9631,0.9633,0.9631,0.9639,0.9619,0.9607,0.9622,0.9622,0.9622,0.9622,0.9622,0.9622,0.8936,0.8991,0.9019,0.9094,0.9132,0.9189,0.9218,0.9258,0.9298,0.9369,0.9414,0.9448,0.9499,0.956,0.9611,0.9626,0.9645,0.9644,0.966,0.9641,0.964,0.9639,0.9628,0.9648,0.9648,0.9676,0.9676,0.9677]},{"header":{"parameterUnit":"m.s-1","parameterCategory":1,"la1":30.2991,"la2":30.254,"lo1":-89.0895,"lo2":-89.0444,"dy":0.0017,"dx":0.0017,"nx":28,"ny":28,"refTime":"2025-06-06T03:00:00:Z","depth":0,"parameterNumber":3,"parameterNumberName":"V-component_of_WINDS"},"data":[0,0,0,0,0,0,0,0,0,0,0,0,0,0,0,0,0,0,0,0,0,0,0,0,0,0,0,0,0,0,0,0,0,0,0,0,0,0,0,0,0,0,0,0,0,0,0,0,0,0,0,0,0,0,0,0,0,0,4.3298,4.3297,0,4.3238,4.3237,4.3237,4.3182,4.3182,4.3181,4.3181,4.3113,4.3112,4.3111,0,0,0,0,0,0,0,0,0,0,0,0,0,4.3361,4.336,4.3298,4.3297,4.3297,4.3238,4.3237,4.3237,4.3183,4.3182,4.3181,4.318,4.3114,4.3112,4.3111,0,0,0,0,0,0,0,0,0,0,0,0,0,4.3321,4.336,4.3298,4.3263,4.3259,4.3238,4.3237,4.3236,4.3183,4.3182,4.3181,4.318,4.3114,4.3112,4.3111,4.3119,0,0,4.3105,4.3104,0,0,0,0,0,0,0,0,4.3323,4.3318,4.3269,4.3265,4.3261,4.3217,4.3235,4.3197,4.3183,4.3211,4.3181,4.3179,4.3148,4.3144,4.3134,4.3116,4.3113,4.3105,4.3104,4.3103,4.3103,0,0,0,0,0,0,0,4.3326,4.3321,4.3274,4.3268,4.3263,4.3248,4.3242,4.3228,4.3186,4.3209,4.3205,4.3199,4.3146,4.3136,4.3132,4.3112,4.3105,4.3104,4.3102,4.3102,4.3097,4.3098,0,0,0,0,0,0,4.3335,4.3323,4.3276,4.3272,4.329,4.3248,4.324,4.3232,4.3186,4.3178,4.32,4.3197,4.314,4.3134,4.313,4.3136,4.3103,4.3102,4.3101,4.3096,4.3097,4.3098,0,0,0,0,0,0,4.3336,4.3331,4.3278,4.3297,4.3289,4.3248,4.3239,4.3231,4.3221,4.3179,4.3171,4.3198,4.3139,4.3132,4.3122,4.3133,4.3101,4.3099,4.3095,4.3096,4.3097,4.3149,0,0,0,0,0,0,4.3339,4.3332,4.3336,4.3297,4.3288,4.3274,4.324,4.3231,4.3219,4.3214,4.3175,4.3167,4.3137,4.3125,4.3121,4.313,4.3098,4.3093,4.3095,4.3097,4.3146,4.3152,4.3157,0,0,0,0,0,4.3341,4.3351,4.3336,4.3331,4.3292,4.3274,4.3269,4.3236,4.322,4.3223,4.3196,4.3169,4.3133,4.3125,4.3119,4.3128,4.3093,4.3095,4.3097,4.3143,4.3151,4.3157,0,0,0,0,0,0,4.3389,4.3345,4.3328,4.3327,4.3305,4.3265,4.3267,4.3245,4.3225,4.3222,4.318,4.3171,4.3166,4.3146,4.3138,4.3133,4.3109,4.311,4.3147,4.3153,4.3158,4.3163,4.3096,0,0,0,0,0,4.3401,4.3391,4.3353,4.3355,4.3345,4.3309,4.33,4.3277,4.3251,4.3241,4.3213,4.3189,4.3172,4.3161,4.3143,4.3143,4.3133,4.3146,4.3152,4.3157,4.3158,4.3156,4.3161,4.3105,4.3105,4.3105,0,0,4.3422,4.3397,4.3393,4.3364,4.3345,4.3335,4.3301,4.3292,4.3284,4.3239,4.3229,4.3208,4.3177,4.3172,4.3169,4.3155,4.3171,4.3159,4.3163,4.3162,4.3159,4.3164,4.3169,4.3106,4.3106,4.3106,0,0,4.3456,4.3437,4.3437,4.3419,4.339,4.3366,4.3367,4.3331,4.3316,4.3305,4.3272,4.3261,4.3232,4.3212,4.3198,4.3227,4.3201,4.3223,4.325,4.3249,4.3254,4.3257,4.3267,4.3271,4.3224,4.3224,4.3224,0,4.3486,4.3472,4.3439,4.3433,4.3421,4.3383,4.3382,4.3365,4.3331,4.3323,4.331,4.3275,4.3251,4.3241,4.3249,4.3239,4.3237,4.3226,4.3256,4.3259,4.3262,4.3271,4.3275,4.3227,4.3226,4.3226,4.3226,0,4.351,4.35,4.3503,4.3474,4.3463,4.3459,4.3425,4.3417,4.3395,4.3372,4.3362,4.3333,4.3309,4.3305,4.3283,4.3292,4.3285,4.3264,4.3239,4.3271,4.3279,4.3282,4.3231,4.323,4.3229,4.3228,0,0,4.3571,4.3526,4.3528,4.3514,4.3481,4.3472,4.3467,4.3445,4.3439,4.3418,4.3411,4.3389,4.3371,4.3355,4.333,4.333,4.3354,4.3309,4.3307,4.3318,4.3362,4.3377,4.3382,4.3337,4.3338,4.3338,4.3364,0,4.3599,4.3589,4.356,4.3558,4.3548,4.3513,4.3508,4.3486,4.3465,4.3453,4.3428,4.3414,4.339,4.3381,4.3378,4.3352,4.3362,4.3349,4.3329,4.3329,4.3337,4.3386,4.3401,4.3427,4.3367,4.3368,4.3368,0,4.363,4.3613,4.3611,4.3579,4.3574,4.357,4.3549,4.3538,4.3513,4.3497,4.3481,4.3455,4.3446,4.3424,4.341,4.3402,4.3392,4.3378,4.3378,4.3374,4.335,4.3382,4.3435,4.3439,4.3372,4.3372,4.3372,0,4.3675,4.3651,4.3647,4.3637,4.36,4.3598,4.3582,4.3556,4.3545,4.3526,4.3519,4.3498,4.3487,4.3471,4.3439,4.3426,4.3429,4.3404,4.3414,4.3415,4.3415,4.3415,4.3466,4.3411,4.3411,4.3411,4.341,0,4.3708,4.3708,4.3667,4.3664,4.3662,4.3629,4.3628,4.3608,4.3586,4.3578,4.3546,4.3538,4.3497,4.3485,4.346,4.3452,4.3447,4.3434,4.3427,4.3436,4.3438,4.3428,4.3425,4.3412,4.3411,4.3411,4.3411,0,4.3757,4.3729,4.3722,4.3689,4.368,4.3681,4.3651,4.3647,4.3624,4.3615,4.361,4.3575,4.3558,4.3526,4.35,4.3483,4.3481,4.3469,4.349,4.3486,4.3498,4.3498,4.3544,4.3548,4.3491,4.3492,4.3492,0,4.378,4.3779,4.3747,4.374,4.3726,4.3715,4.3705,4.3673,4.3663,4.3635,4.3634,4.3616,4.3599,4.3575,4.3546,4.3526,4.3513,4.3531,4.351,4.352,4.3513,4.3513,4.3513,4.3535,4.3536,4.3537,4.3537,0,4.3823,4.381,4.3798,4.3781,4.377,4.3755,4.3737,4.3733,4.3696,4.3687,4.3671,4.3659,4.3634,4.3616,4.3593,4.3574,4.3549,4.3545,4.3546,4.3555,4.3567,4.356,4.3503,4.3543,4.3543,4.3542,4.3542,4.3542,4.3859,4.3857,4.3835,4.3822,4.3806,4.3791,4.3785,4.3763,4.3751,4.3729,4.3711,4.3697,4.3672,4.3638,4.3622,4.3609,4.3597,4.3599,4.3599,4.36,4.3604,4.357,4.3605,4.3604,4.3604,4.3604,4.3604,0,4.3901,4.3885,4.3874,4.3852,4.3842,4.3822,4.3802,4.3794,4.3783,4.3763,4.3749,4.3731,4.3714,4.3685,4.3665,4.3661,4.3649,4.3656,4.3656,4.3652,4.3616,4.3617,4.3666,4.3666,4.3666,4.3666,4.3666,4.3666,4.3921,4.3917,4.3901,4.3889,4.3872,4.386,4.3851,4.3836,4.382,4.3803,4.379,4.3771,4.3747,4.3726,4.3709,4.37,4.3694,4.3706,4.3694,4.366,4.3654,4.3649,4.3649,4.3705,4.3705,4.373,4.3731,4.3731]}]]